This is the latest recevied weather packets stored in our database for station/object KC3QLX. If no packets are shown the sender has not sent any weather packets the latest 10 day(s).
| Time | Temp. | Humidity | Pressure | Rain* | Wind** | Luminosity | Snow |
|---|---|---|---|---|---|---|---|
| 1777604202 | 7.22° C | 99% | 1012.1 hPa | 0 mm | - | 0 W/m² | - |
| 1777603899 | 7.22° C | 99% | 1012 hPa | 0 mm | - | 0 W/m² | - |
| 1777603596 | 7.78° C | 99% | 1012.2 hPa | 0 mm | - | 0 W/m² | - |
| 1777603292 | 7.78° C | 99% | 1012.1 hPa | 0 mm | - | 0 W/m² | - |
| 1777602987 | 7.78° C | 99% | 1012.1 hPa | 0 mm | - | 0 W/m² | - |
| 1777602683 | 7.78° C | 99% | 1012 hPa | 0 mm | - | 0 W/m² | - |
| 1777602377 | 7.78° C | 98% | 1012.2 hPa | 1.27 mm | - | 0 W/m² | - |
| 1777602074 | 7.78° C | 98% | 1012.3 hPa | 3.05 mm | - | 0 W/m² | - |
| 1777601768 | 7.78° C | 98% | 1012.1 hPa | 1.78 mm | - | 0 W/m² | - |
| 1777601464 | 7.78° C | 98% | 1011.9 hPa | 0 mm | - | 0 W/m² | - |
| 1777601160 | 7.78° C | 98% | 1012.2 hPa | 0 mm | - | 0 W/m² | - |
| 1777600858 | 7.78° C | 98% | 1012 hPa | 0 mm | - | 0 W/m² | - |
| 1777600553 | 7.78° C | 98% | 1012.1 hPa | 0 mm | - | 0 W/m² | - |
| 1777600249 | 7.78° C | 97% | 1012 hPa | 0 mm | - | 0 W/m² | - |
| 1777599945 | 7.78° C | 97% | 1012 hPa | 0 mm | - | 0 W/m² | - |
| 1777599642 | 7.78° C | 97% | 1012 hPa | 0 mm | - | 0 W/m² | - |
| 1777599338 | 7.78° C | 97% | 1011.9 hPa | 0 mm | - | 0 W/m² | - |
| 1777599035 | 8.33° C | 98% | 1011.7 hPa | 0 mm | - | 0 W/m² | - |
| 1777598732 | 8.33° C | 98% | 1011.6 hPa | 0 mm | - | 0 W/m² | - |
| 1777598428 | 8.33° C | 99% | 1011.7 hPa | 0 mm | - | 0 W/m² | - |
| 1777598127 | 8.33° C | 99% | 1011.5 hPa | 1.27 mm | - | 0 W/m² | - |
| 1777597821 | 8.33° C | 99% | 1011.3 hPa | 1.27 mm | - | 0 W/m² | - |
| 1777597510 | 8.89° C | 99% | 1011.2 hPa | 0 mm | - | 0 W/m² | - |
| 1777597206 | 8.89° C | 99% | 1011.2 hPa | 0 mm | - | 0 W/m² | - |
| 1777596901 | 8.89° C | 99% | 1011.1 hPa | 0 mm | - | 0 W/m² | - |
* Rain latest hour (hover to see other rain measurements)
** Current wind speed in m/s (hover to see current wind gust speed)